Language: 


Des rapports , des résumés tant et plus, au choix de chacun....


Données Historiques de Météogheer
Journalier Rapport pour Février 6, 2018 Unitée:  Impériale    Métrique   Les deux
Suivant Jour »
Journalier Hebdomadaire Mensuel Annuel Sur mesure
  Max: Min: Moyenne:
Température: 35.6 °F 28.4 °F 31.5 °F
Point de rosée: 30.2 °F 24.8 °F 26.6 °F
Humidité: 95% 69% 84%
Vent: 12.3mph 3.4mph 8mph
Rafales: 12.5mph - -
Vent- - NE
Pression: 30.1 in 29.9 in -
Pluie: 0 in    
Historical Graphs
 
 
Données tabulaires pour Février 6, 2018
Heure Température Point de rosée Pression Vent Vent Rafales Humidité Pluie Taux (Horaire) Conditions
00:04 32.5 °F 30.2 °F 30.1 in NE 7.8 mph 9.2 mph 90% 0 in
00:09 32.5 °F 30.2 °F 30.1 in NE 8.1 mph 9.4 mph 89% 0 in
00:14 32.5 °F 30.2 °F 30.1 in NE 8.5 mph 9.4 mph 89% 0 in
00:19 32.4 °F 30.2 °F 30.1 in NE 8.1 mph 10.5 mph 89% 0 in
00:24 32.4 °F 30.2 °F 30.1 in ENE 9.4 mph 10.7 mph 89% 0 in
00:29 32.4 °F 30.2 °F 30.1 in NE 7.4 mph 10.7 mph 89% 0 in
00:34 32.4 °F 30.2 °F 30.1 in ENE 7.6 mph 9.4 mph 89% 0 in
00:39 32.4 °F 30.2 °F 30.1 in ENE 7.6 mph 7.8 mph 89% 0 in
00:44 32.4 °F 30.2 °F 30.1 in ENE 7.6 mph 7.8 mph 89% 0 in
00:49 32.4 °F 30.2 °F 30.1 in ENE 7.6 mph 7.8 mph 89% 0 in
00:54 32.2 °F 30.2 °F 30.1 in ENE 7.6 mph 7.6 mph 89% 0 in
00:59 32.2 °F 30.2 °F 30 in ENE 7.6 mph 7.6 mph 88% 0 in
01:04 32.2 °F 30.2 °F 30 in NE 7.6 mph 7.6 mph 88% 0 in
01:09 32 °F 26.6 °F 30 in NE 7.6 mph 7.6 mph 88% 0 in
01:14 32 °F 26.6 °F 30 in NE 7.6 mph 7.6 mph 88% 0 in
01:19 31.8 °F 26.6 °F 30 in ENE 5.8 mph 7.6 mph 88% 0 in
01:24 31.8 °F 26.6 °F 30 in ENE 6 mph 7.6 mph 88% 0 in
01:29 31.8 °F 26.6 °F 30 in ENE 6 mph 6.7 mph 88% 0 in
01:34 31.8 °F 26.6 °F 30 in ENE 6 mph 6 mph 88% 0 in
01:39 31.8 °F 26.6 °F 30 in ENE 6.5 mph 8.5 mph 88% 0 in
01:44 31.6 °F 26.6 °F 30 in NNE 5.8 mph 8.5 mph 88% 0 in
01:50 31.6 °F 26.6 °F 30 in NNE 5.8 mph 6.5 mph 88% 0 in
01:55 31.6 °F 26.6 °F 30 in NNE 5.8 mph 5.8 mph 88% 0 in
02:00 31.5 °F 26.6 °F 30 in NNE 7.8 mph 7.8 mph 88% 0 in
02:05 31.5 °F 26.6 °F 30 in NE 5.8 mph 7.8 mph 88% 0 in
02:10 31.3 °F 26.6 °F 30 in NE 5.8 mph 7.8 mph 88% 0 in
02:15 31.3 °F 26.6 °F 30 in NE 7.8 mph 7.8 mph 88% 0 in
02:20 31.1 °F 26.6 °F 30 in NE 7.8 mph 8.7 mph 88% 0 in
02:21 31.1 °F 26.6 °F 30 in NE 7.8 mph 8.7 mph 88% 0 in
02:26 31.1 °F 26.6 °F 30 in NE 7.2 mph 8.7 mph 88% 0 in
02:31 30.9 °F 26.6 °F 30 in ENE 7.4 mph 7.8 mph 88% 0 in
02:36 30.9 °F 26.6 °F 30 in ENE 6.3 mph 7.4 mph 88% 0 in
02:41 30.7 °F 26.6 °F 30 in ENE 10.1 mph 10.1 mph 88% 0 in
02:46 30.7 °F 26.6 °F 30 in NE 8.7 mph 10.1 mph 88% 0 in
02:51 30.7 °F 26.6 °F 30 in NE 7.8 mph 10.1 mph 88% 0 in
02:56 30.6 °F 26.6 °F 30 in ENE 10.1 mph 10.1 mph 88% 0 in
03:01 30.6 °F 26.6 °F 30 in NNE 8.9 mph 10.1 mph 88% 0 in
03:06 30.4 °F 26.6 °F 30 in ENE 7.6 mph 10.1 mph 88% 0 in
03:11 30.4 °F 26.6 °F 30 in NE 7.4 mph 8.9 mph 88% 0 in
03:16 30.2 °F 26.6 °F 30 in NE 8.5 mph 8.5 mph 89% 0 in
03:21 30.2 °F 26.6 °F 30 in ENE 5.6 mph 8.5 mph 89% 0 in
03:26 30 °F 26.6 °F 30 in NE 7.8 mph 9.4 mph 89% 0 in
03:31 30 °F 26.6 °F 30 in ENE 6.3 mph 9.4 mph 90% 0 in
03:36 30 °F 26.6 °F 30 in ENE 7.6 mph 9.4 mph 90% 0 in
03:41 29.8 °F 26.6 °F 30 in ENE 5.6 mph 8.7 mph 90% 0 in
03:46 29.8 °F 26.6 °F 30 in NE 7.4 mph 8.5 mph 90% 0 in
03:51 29.7 °F 26.6 °F 30 in NE 4.3 mph 8.7 mph 90% 0 in
03:56 29.7 °F 26.6 °F 30 in ENE 3.8 mph 8.7 mph 90% 0 in
04:01 29.5 °F 26.6 °F 30 in NE 4 mph 7.4 mph 90% 0 in
04:06 29.5 °F 26.6 °F 30 in ENE 5.4 mph 8.1 mph 90% 0 in
04:11 29.5 °F 26.6 °F 30 in ENE 4.3 mph 8.1 mph 90% 0 in
04:16 29.3 °F 24.8 °F 30 in ENE 5.6 mph 7.4 mph 90% 0 in
04:21 29.3 °F 26.6 °F 30 in NE 6.5 mph 7.4 mph 91% 0 in
04:26 29.3 °F 26.6 °F 30 in ENE 5.4 mph 6.5 mph 91% 0 in
04:31 29.5 °F 26.6 °F 30 in ENE 5.8 mph 6.5 mph 91% 0 in
04:36 29.5 °F 26.6 °F 30 in NE 8.1 mph 8.5 mph 92% 0 in
04:41 29.5 °F 26.6 °F 30 in NE 6.5 mph 8.7 mph 92% 0 in
04:47 29.7 °F 26.6 °F 30 in NE 3.4 mph 8.7 mph 92% 0 in
04:52 29.5 °F 26.6 °F 30 in ENE 4.9 mph 8.1 mph 92% 0 in
04:57 29.5 °F 26.6 °F 30 in NNE 6.5 mph 8.1 mph 91% 0 in
05:02 29.5 °F 26.6 °F 29.9 in ENE 4 mph 8.5 mph 91% 0 in
05:07 29.5 °F 26.6 °F 29.9 in NE 4.3 mph 8.5 mph 91% 0 in
05:12 29.5 °F 26.6 °F 29.9 in NNE 6.5 mph 7.6 mph 91% 0 in
05:17 29.3 °F 26.6 °F 30 in NNE 6.7 mph 7.6 mph 92% 0 in
05:22 29.3 °F 26.6 °F 30 in NE 8.5 mph 8.7 mph 92% 0 in
05:27 29.3 °F 26.6 °F 30 in NNE 7.8 mph 8.7 mph 92% 0 in
05:32 29.3 °F 26.6 °F 29.9 in NE 7.4 mph 8.5 mph 92% 0 in
05:37 29.3 °F 26.6 °F 29.9 in NNE 3.4 mph 8.5 mph 93% 0 in
05:42 29.3 °F 26.6 °F 29.9 in NNE 5.8 mph 7.8 mph 93% 0 in
05:47 29.3 °F 26.6 °F 30 in NNE 4.9 mph 8.5 mph 93% 0 in
05:52 29.3 °F 26.6 °F 30 in North 6.3 mph 8.5 mph 93% 0 in
05:57 29.3 °F 26.6 °F 30 in NNE 6.5 mph 8.5 mph 93% 0 in
06:02 29.3 °F 26.6 °F 29.9 in North 5.8 mph 10.3 mph 93% 0 in
06:07 29.3 °F 26.6 °F 29.9 in NNE 5.6 mph 10.3 mph 93% 0 in
06:12 29.1 °F 26.6 °F 29.9 in NNE 9.8 mph 9.8 mph 93% 0 in
06:17 29.1 °F 26.6 °F 29.9 in NNE 7.8 mph 9.8 mph 93% 0 in
06:22 29.1 °F 26.6 °F 29.9 in NE 7.6 mph 9.8 mph 93% 0 in
06:27 29.1 °F 26.6 °F 29.9 in North 6.9 mph 8.7 mph 93% 0 in
06:32 29.1 °F 26.6 °F 29.9 in ENE 6.5 mph 8.1 mph 93% 0 in
06:38 29.1 °F 26.6 °F 29.9 in NE 5.4 mph 8.7 mph 93% 0 in
06:43 29.1 °F 26.6 °F 29.9 in NNE 6.9 mph 8.7 mph 93% 0 in
06:48 28.9 °F 26.6 °F 29.9 in NNE 6.3 mph 8.7 mph 93% 0 in
06:53 28.9 °F 26.6 °F 29.9 in NE 8.5 mph 11.9 mph 93% 0 in
06:58 28.8 °F 26.6 °F 29.9 in NE 8.5 mph 11.9 mph 93% 0 in
07:03 28.8 °F 26.6 °F 29.9 in NE 8.5 mph 10.3 mph 93% 0 in
07:08 28.8 °F 26.6 °F 29.9 in NE 8.1 mph 10.3 mph 93% 0 in
07:13 28.6 °F 26.6 °F 29.9 in NE 7.8 mph 10.1 mph 93% 0 in
07:18 28.6 °F 26.6 °F 29.9 in NE 8.1 mph 10.1 mph 93% 0 in
07:23 28.6 °F 26.6 °F 29.9 in ENE 5.6 mph 10.1 mph 94% 0 in
07:28 28.6 °F 26.6 °F 29.9 in NNE 5.6 mph 9.8 mph 94% 0 in
07:33 28.6 °F 26.6 °F 29.9 in NNE 8.5 mph 9.4 mph 94% 0 in
07:38 28.6 °F 26.6 °F 29.9 in NNE 6.3 mph 8.7 mph 94% 0 in
07:43 28.6 °F 26.6 °F 29.9 in NNE 7.6 mph 8.7 mph 94% 0 in
07:48 28.4 °F 26.6 °F 29.9 in North 9.6 mph 9.6 mph 95% 0 in
07:53 28.4 °F 26.6 °F 29.9 in NNE 7.4 mph 9.6 mph 95% 0 in
07:58 28.4 °F 26.6 °F 29.9 in NNE 7.4 mph 8.5 mph 95% 0 in
08:03 28.4 °F 26.6 °F 29.9 in NNE 7.4 mph 7.4 mph 95% 0 in
08:08 28.4 °F 26.6 °F 29.9 in NE 6 mph 7.4 mph 95% 0 in
08:13 28.4 °F 26.6 °F 29.9 in NNE 8.1 mph 9.8 mph 95% 0 in
08:18 28.6 °F 26.6 °F 29.9 in NE 8.7 mph 9.8 mph 94% 0 in
08:23 28.6 °F 26.6 °F 29.9 in NE 8.5 mph 8.7 mph 94% 0 in
08:28 28.6 °F 26.6 °F 29.9 in NE 8.5 mph 8.7 mph 93% 0 in
08:33 28.6 °F 26.6 °F 29.9 in NE 10.1 mph 10.1 mph 93% 0 in
08:38 28.6 °F 26.6 °F 29.9 in NE 8.7 mph 10.1 mph 93% 0 in
08:43 28.8 °F 26.6 °F 29.9 in NE 8.7 mph 10.1 mph 92% 0 in
08:48 28.8 °F 26.6 °F 29.9 in NNE 6.5 mph 8.7 mph 92% 0 in
08:53 28.8 °F 26.6 °F 29.9 in NNE 6.5 mph 8.7 mph 92% 0 in
08:59 28.9 °F 26.6 °F 29.9 in NNE 8.5 mph 10.5 mph 92% 0 in
09:04 28.9 °F 26.6 °F 29.9 in NNE 8.5 mph 10.5 mph 91% 0 in
09:09 28.9 °F 26.6 °F 29.9 in NE 8.7 mph 8.7 mph 91% 0 in
09:14 28.9 °F 26.6 °F 29.9 in NE 8.7 mph 8.7 mph 91% 0 in
09:19 29.1 °F 26.6 °F 29.9 in NE 8.7 mph 8.7 mph 91% 0 in
09:24 29.1 °F 24.8 °F 29.9 in NE 8.7 mph 8.7 mph 90% 0 in
09:29 29.1 °F 24.8 °F 29.9 in NE 8.7 mph 8.7 mph 90% 0 in
09:34 29.1 °F 24.8 °F 29.9 in NE 8.7 mph 8.7 mph 90% 0 in
09:39 29.1 °F 24.8 °F 29.9 in NNE 8.7 mph 8.7 mph 90% 0 in
09:44 29.1 °F 24.8 °F 29.9 in NE 10.1 mph 10.1 mph 90% 0 in
09:49 29.1 °F 24.8 °F 29.9 in NE 8.7 mph 10.1 mph 90% 0 in
09:54 29.3 °F 24.8 °F 29.9 in NNE 8.7 mph 10.5 mph 89% 0 in
09:59 29.5 °F 26.6 °F 29.9 in NNE 8.7 mph 10.5 mph 89% 0 in
10:04 29.5 °F 26.6 °F 29.9 in NNE 8.7 mph 10.1 mph 89% 0 in
10:10 29.7 °F 26.6 °F 29.9 in NE 8.5 mph 8.7 mph 89% 0 in
10:15 29.8 °F 26.6 °F 29.9 in NE 8.5 mph 8.7 mph 89% 0 in
10:20 30 °F 26.6 °F 29.9 in NE 8.5 mph 8.5 mph 88% 0 in
10:25 30 °F 26.6 °F 29.9 in NE 8.5 mph 8.5 mph 88% 0 in
10:30 30.2 °F 26.6 °F 29.9 in NE 8.5 mph 8.5 mph 87% 0 in
10:35 30.2 °F 26.6 °F 29.9 in NE 10.5 mph 12.5 mph 87% 0 in
10:40 30.2 °F 24.8 °F 29.9 in ENE 7.6 mph 12.5 mph 86% 0 in
10:45 30.2 °F 24.8 °F 29.9 in NNE 7.8 mph 10.5 mph 86% 0 in
10:50 30.6 °F 24.8 °F 29.9 in NNE 7.8 mph 10.3 mph 85% 0 in
10:55 30.7 °F 26.6 °F 29.9 in NNE 7.8 mph 7.8 mph 85% 0 in
11:00 31.1 °F 26.6 °F 29.9 in NE 9.4 mph 9.4 mph 85% 0 in
11:05 31.3 °F 24.8 °F 29.9 in NE 9.4 mph 9.4 mph 83% 0 in
11:10 31.3 °F 24.8 °F 29.9 in NE 9.4 mph 9.4 mph 82% 0 in
11:15 31.5 °F 24.8 °F 29.9 in NE 9.4 mph 9.4 mph 81% 0 in
11:20 31.3 °F 24.8 °F 29.9 in NE 9.4 mph 9.4 mph 80% 0 in
11:25 31.3 °F 24.8 °F 29.9 in NE 9.4 mph 9.4 mph 79% 0 in
11:30 31.6 °F 24.8 °F 29.9 in NNE 10.5 mph 10.5 mph 80% 0 in
11:35 32 °F 24.8 °F 29.9 in NNE 10.5 mph 10.5 mph 80% 0 in
11:40 32.2 °F 26.6 °F 29.9 in NNE 10.5 mph 10.5 mph 80% 0 in
11:45 32.4 °F 26.6 °F 29.9 in NNE 10.5 mph 10.5 mph 80% 0 in
11:51 32.5 °F 26.6 °F 29.9 in NNE 10.1 mph 10.5 mph 79% 0 in
11:56 32.7 °F 26.6 °F 29.9 in NNE 10.5 mph 10.5 mph 79% 0 in
12:01 32.7 °F 28.4 °F 29.9 in NNE 8.7 mph 11 mph 80% 0 in
12:06 32.5 °F 26.6 °F 29.9 in NE 8.5 mph 11 mph 79% 0 in
12:11 32.4 °F 26.6 °F 29.9 in NE 8.5 mph 10.5 mph 79% 0 in
12:16 32.4 °F 26.6 °F 29.9 in NE 8.5 mph 8.5 mph 79% 0 in
12:21 32.5 °F 26.6 °F 29.9 in NE 12.3 mph 12.3 mph 79% 0 in
12:26 32.7 °F 28.4 °F 29.9 in NE 12.3 mph 12.3 mph 80% 0 in
12:31 32.7 °F 28.4 °F 29.9 in NE 12.3 mph 12.3 mph 80% 0 in
12:36 32.7 °F 26.6 °F 29.9 in NE 12.3 mph 12.3 mph 79% 0 in
12:41 32.7 °F 26.6 °F 29.9 in NE 12.3 mph 12.3 mph 79% 0 in
12:46 32.7 °F 26.6 °F 29.9 in NE 12.3 mph 12.3 mph 79% 0 in
12:51 32.9 °F 28.4 °F 29.9 in NE 12.3 mph 12.3 mph 79% 0 in
12:56 33.3 °F 28.4 °F 29.9 in NE 12.3 mph 12.3 mph 79% 0 in
13:01 33.3 °F 26.6 °F 29.9 in NE 12.3 mph 12.3 mph 78% 0 in
13:06 33.1 °F 26.6 °F 29.9 in NE 12.3 mph 12.3 mph 77% 0 in
13:11 33.3 °F 26.6 °F 29.9 in NE 12.3 mph 12.3 mph 78% 0 in
13:16 33.4 °F 28.4 °F 29.9 in NE 12.3 mph 12.3 mph 78% 0 in
13:21 33.8 °F 28.4 °F 29.9 in NE 12.3 mph 12.3 mph 77% 0 in
13:26 34 °F 28.4 °F 29.9 in NE 12.3 mph 12.3 mph 77% 0 in
13:31 34.5 °F 28.4 °F 29.9 in NE 12.3 mph 12.3 mph 76% 0 in
13:36 34.5 °F 28.4 °F 29.9 in NE 12.3 mph 12.3 mph 75% 0 in
13:41 34.3 °F 26.6 °F 29.9 in NE 12.3 mph 12.3 mph 74% 0 in
13:46 34.3 °F 28.4 °F 29.9 in NE 12.3 mph 12.3 mph 75% 0 in
13:51 34.2 °F 28.4 °F 29.9 in NE 12.3 mph 12.3 mph 75% 0 in
13:56 34.2 °F 28.4 °F 29.9 in NE 12.3 mph 12.3 mph 75% 0 in
14:01 34.3 °F 28.4 °F 29.9 in NE 12.3 mph 12.3 mph 75% 0 in
14:06 34.7 °F 28.4 °F 29.9 in NE 12.3 mph 12.3 mph 75% 0 in
14:12 35.1 °F 28.4 °F 29.9 in NE 12.3 mph 12.3 mph 74% 0 in
14:17 35.2 °F 26.6 °F 29.9 in NE 12.3 mph 12.3 mph 73% 0 in
14:22 35.1 °F 26.6 °F 29.9 in NE 12.3 mph 12.3 mph 72% 0 in
14:27 34.9 °F 26.6 °F 29.9 in NE 12.3 mph 12.3 mph 71% 0 in
14:32 34.9 °F 26.6 °F 29.9 in NE 12.3 mph 12.3 mph 73% 0 in
14:37 34.7 °F 26.6 °F 29.9 in NE 12.3 mph 12.3 mph 73% 0 in
14:42 34.5 °F 26.6 °F 29.9 in NE 12.3 mph 12.3 mph 73% 0 in
14:47 34.7 °F 26.6 °F 29.9 in NE 12.3 mph 12.3 mph 73% 0 in
14:52 34.7 °F 26.6 °F 29.9 in NE 12.3 mph 12.3 mph 72% 0 in
14:57 34.7 °F 26.6 °F 29.9 in NE 12.3 mph 12.3 mph 72% 0 in
15:02 34.7 °F 26.6 °F 29.9 in NE 12.3 mph 12.3 mph 71% 0 in
15:07 35.2 °F 26.6 °F 29.9 in NE 12.3 mph 12.3 mph 71% 0 in
15:12 35.4 °F 26.6 °F 29.9 in NE 12.3 mph 12.3 mph 71% 0 in
15:17 35.2 °F 26.6 °F 29.9 in NE 12.3 mph 12.3 mph 70% 0 in
15:22 35.1 °F 26.6 °F 29.9 in NE 12.3 mph 12.3 mph 71% 0 in
15:27 35.1 °F 26.6 °F 29.9 in NE 12.3 mph 12.3 mph 72% 0 in
15:32 34.9 °F 26.6 °F 29.9 in NE 12.3 mph 12.3 mph 72% 0 in
15:37 35.2 °F 26.6 °F 29.9 in NE 12.3 mph 12.3 mph 71% 0 in
15:42 35.6 °F 28.4 °F 29.9 in NE 12.3 mph 12.3 mph 72% 0 in
15:47 35.6 °F 28.4 °F 29.9 in NE 9.8 mph 9.8 mph 71% 0 in
15:52 35.4 °F 26.6 °F 29.9 in NE 9.8 mph 9.8 mph 70% 0 in
15:57 35.2 °F 26.6 °F 29.9 in NE 9.8 mph 9.8 mph 70% 0 in
16:02 35.1 °F 26.6 °F 29.9 in NE 9.8 mph 9.8 mph 70% 0 in
16:07 35.2 °F 26.6 °F 29.9 in NNE 10.1 mph 10.1 mph 69% 0 in
16:12 35.2 °F 26.6 °F 29.9 in NNE 10.1 mph 10.1 mph 70% 0 in
16:17 35.1 °F 26.6 °F 29.9 in NNE 10.1 mph 10.1 mph 69% 0 in
16:22 34.9 °F 26.6 °F 29.9 in NNE 10.1 mph 10.1 mph 69% 0 in
16:34 34.9 °F 26.6 °F 29.9 in NNE 10.1 mph 10.1 mph 70% 0 in
16:39 34.7 °F 26.6 °F 29.9 in NNE 10.1 mph 10.1 mph 70% 0 in
16:44 34.7 °F 26.6 °F 29.9 in NNE 10.1 mph 10.1 mph 71% 0 in
16:49 34.7 °F 26.6 °F 29.9 in NNE 10.1 mph 10.1 mph 72% 0 in
16:54 34.5 °F 26.6 °F 29.9 in North 8.1 mph 8.1 mph 72% 0 in
16:59 34.5 °F 26.6 °F 29.9 in NE 8.7 mph 10.3 mph 72% 0 in
17:04 34.3 °F 26.6 °F 29.9 in NE 7.6 mph 10.3 mph 72% 0 in
17:09 34.3 °F 26.6 °F 29.9 in NE 7.6 mph 9.6 mph 72% 0 in
17:14 34.2 °F 26.6 °F 29.9 in NE 7.6 mph 7.6 mph 72% 0 in
17:19 34.2 °F 26.6 °F 29.9 in NE 7.6 mph 7.6 mph 72% 0 in
17:24 34 °F 26.6 °F 29.9 in NE 7.6 mph 7.6 mph 72% 0 in
17:29 34 °F 26.6 °F 29.9 in NE 7.6 mph 7.6 mph 72% 0 in
17:34 33.8 °F 26.6 °F 29.9 in NE 7.6 mph 7.6 mph 73% 0 in
17:39 33.6 °F 26.6 °F 29.9 in NE 7.6 mph 7.6 mph 74% 0 in
17:44 33.4 °F 26.6 °F 29.9 in NE 7.6 mph 7.6 mph 74% 0 in
17:50 33.4 °F 26.6 °F 29.9 in NE 7.6 mph 7.6 mph 75% 0 in
17:55 33.4 °F 26.6 °F 29.9 in NE 7.6 mph 7.6 mph 75% 0 in
18:00 33.3 °F 26.6 °F 29.9 in NE 5.4 mph 5.4 mph 76% 0 in
18:05 33.3 °F 26.6 °F 29.9 in NE 5.4 mph 5.4 mph 76% 0 in
18:10 33.3 °F 26.6 °F 29.9 in NE 5.4 mph 5.4 mph 77% 0 in
18:15 33.1 °F 26.6 °F 29.9 in NE 5.4 mph 5.4 mph 77% 0 in
18:20 33.1 °F 26.6 °F 29.9 in NE 5.4 mph 5.4 mph 78% 0 in
18:25 33.1 °F 26.6 °F 29.9 in NE 5.4 mph 5.4 mph 78% 0 in
18:30 33.1 °F 26.6 °F 29.9 in NE 5.4 mph 5.4 mph 78% 0 in
18:35 33.1 °F 26.6 °F 29.9 in NE 5.4 mph 5.4 mph 78% 0 in
18:40 32.9 °F 26.6 °F 29.9 in NE 5.4 mph 5.4 mph 78% 0 in
18:45 32.9 °F 26.6 °F 29.9 in NE 5.4 mph 5.4 mph 78% 0 in
18:50 32.9 °F 26.6 °F 29.9 in NE 5.4 mph 5.4 mph 78% 0 in
18:55 32.9 °F 26.6 °F 29.9 in NE 5.4 mph 5.4 mph 78% 0 in
19:00 32.9 °F 26.6 °F 29.9 in NE 5.4 mph 5.4 mph 78% 0 in
19:05 32.7 °F 26.6 °F 29.9 in NE 5.4 mph 5.4 mph 78% 0 in
19:10 32.7 °F 26.6 °F 29.9 in NE 5.4 mph 5.4 mph 78% 0 in
19:15 32.5 °F 26.6 °F 29.9 in NE 5.4 mph 5.4 mph 78% 0 in
19:20 32.5 °F 26.6 °F 29.9 in NE 5.4 mph 5.4 mph 78% 0 in
19:25 32.5 °F 26.6 °F 29.9 in NE 5.4 mph 5.4 mph 78% 0 in
19:30 32.4 °F 26.6 °F 29.9 in NE 5.4 mph 5.4 mph 78% 0 in
19:35 32.4 °F 26.6 °F 29.9 in NE 5.4 mph 5.4 mph 79% 0 in
19:40 32.2 °F 26.6 °F 29.9 in NE 5.4 mph 5.4 mph 79% 0 in
19:45 32.2 °F 26.6 °F 29.9 in NE 5.4 mph 5.4 mph 80% 0 in
19:50 32 °F 24.8 °F 29.9 in NE 5.4 mph 5.4 mph 80% 0 in
19:55 31.8 °F 24.8 °F 29.9 in NE 5.4 mph 5.4 mph 81% 0 in
20:00 31.6 °F 24.8 °F 29.9 in NE 5.4 mph 5.4 mph 81% 0 in
20:05 31.5 °F 24.8 °F 29.9 in NE 5.4 mph 5.4 mph 82% 0 in
20:10 31.3 °F 24.8 °F 29.9 in NE 5.4 mph 5.4 mph 82% 0 in
20:15 31.3 °F 24.8 °F 29.9 in NE 5.4 mph 5.4 mph 83% 0 in
20:20 31.1 °F 24.8 °F 29.9 in NE 5.4 mph 5.4 mph 83% 0 in
20:25 31.1 °F 24.8 °F 29.9 in NE 5.4 mph 5.4 mph 84% 0 in
20:30 31.1 °F 24.8 °F 29.9 in NE 5.4 mph 5.4 mph 84% 0 in
20:35 31.1 °F 24.8 °F 29.9 in NE 5.4 mph 5.4 mph 84% 0 in
20:41 31.1 °F 26.6 °F 29.9 in NE 5.4 mph 5.4 mph 85% 0 in
20:46 31.1 °F 26.6 °F 29.9 in NE 5.4 mph 5.4 mph 85% 0 in
20:51 30.9 °F 26.6 °F 29.9 in NE 5.4 mph 5.4 mph 85% 0 in
20:56 30.9 °F 26.6 °F 29.9 in NE 5.4 mph 5.4 mph 85% 0 in
21:01 30.9 °F 26.6 °F 29.9 in NE 5.4 mph 5.4 mph 85% 0 in
21:06 30.7 °F 26.6 °F 29.9 in NE 5.4 mph 5.4 mph 85% 0 in
21:11 30.7 °F 26.6 °F 29.9 in NE 5.4 mph 5.4 mph 85% 0 in
21:16 30.7 °F 26.6 °F 29.9 in NE 5.4 mph 5.4 mph 85% 0 in
21:21 30.7 °F 26.6 °F 29.9 in NE 5.4 mph 5.4 mph 85% 0 in
21:26 30.7 °F 26.6 °F 29.9 in NE 5.4 mph 5.4 mph 86% 0 in
21:31 30.7 °F 26.6 °F 29.9 in NE 5.4 mph 5.4 mph 86% 0 in
21:36 30.7 °F 26.6 °F 29.9 in NE 5.4 mph 5.4 mph 86% 0 in
21:41 30.7 °F 26.6 °F 29.9 in NE 5.4 mph 5.4 mph 87% 0 in
21:47 30.7 °F 26.6 °F 29.9 in NE 5.4 mph 5.4 mph 87% 0 in
21:52 30.7 °F 26.6 °F 29.9 in NE 5.4 mph 5.4 mph 87% 0 in
21:57 30.9 °F 26.6 °F 29.9 in NE 5.4 mph 5.4 mph 87% 0 in
22:02 30.9 °F 26.6 °F 29.9 in NE 5.4 mph 5.4 mph 88% 0 in
22:07 31.1 °F 26.6 °F 29.9 in NE 5.4 mph 5.4 mph 88% 0 in
22:12 30.9 °F 26.6 °F 29.9 in NE 5.4 mph 5.4 mph 87% 0 in
22:17 30.9 °F 26.6 °F 29.9 in NE 5.4 mph 5.4 mph 87% 0 in
22:22 30.9 °F 26.6 °F 29.9 in NE 5.4 mph 5.4 mph 87% 0 in
22:27 30.9 °F 26.6 °F 29.9 in NE 5.4 mph 5.4 mph 86% 0 in
22:32 31.1 °F 26.6 °F 29.9 in NE 5.4 mph 5.4 mph 86% 0 in
22:37 31.1 °F 26.6 °F 29.9 in ENE 6.3 mph 6.3 mph 85% 0 in
22:42 31.1 °F 26.6 °F 29.9 in NNE 7.2 mph 7.2 mph 85% 0 in
22:47 31.1 °F 26.6 °F 29.9 in NE 8.1 mph 8.1 mph 85% 0 in
22:52 31.1 °F 24.8 °F 29.9 in NE 7.6 mph 8.1 mph 84% 0 in
22:57 31.1 °F 24.8 °F 29.9 in NE 8.5 mph 10.3 mph 83% 0 in
23:02 31.1 °F 24.8 °F 29.9 in NE 8.1 mph 10.3 mph 82% 0 in
23:07 31.1 °F 24.8 °F 29.9 in NE 8.7 mph 8.7 mph 82% 0 in
23:12 31.1 °F 24.8 °F 29.9 in NNE 7.4 mph 8.7 mph 81% 0 in
23:17 31.1 °F 24.8 °F 29.9 in NE 7.6 mph 8.7 mph 81% 0 in
23:22 30.9 °F 24.8 °F 29.9 in NE 8.7 mph 8.7 mph 81% 0 in
23:27 30.9 °F 24.8 °F 29.9 in NE 9.6 mph 9.6 mph 81% 0 in
23:32 30.9 °F 24.8 °F 29.9 in NE 5.4 mph 9.6 mph 82% 0 in
23:37 30.9 °F 24.8 °F 29.9 in NNE 8.5 mph 8.5 mph 82% 0 in
23:42 30.9 °F 24.8 °F 29.9 in NNE 8.5 mph 8.5 mph 82% 0 in
23:47 30.7 °F 24.8 °F 29.9 in NNE 8.5 mph 8.5 mph 82% 0 in
23:52 30.7 °F 24.8 °F 29.9 in NNE 8.5 mph 8.5 mph 81% 0 in
23:57 30.7 °F 24.8 °F 29.9 in NNE 5.4 mph 8.5 mph 81% 0 in
Données Historique de Météo Turbie

Mise a jour : 22/05/2018 04:08:12
Généré par Cumulus 1.9.4 (1099)